Location: Newark
(50.0306°N, 2.3272°E)
Time: 10:37:06
(UTC+00:00)

Transit 4A - Visible Passes

Search period start: 09 December 2019 00:00
Search period end: 19 December 2019 00:00
Orbit: 870 x 975 km, 66.8° (Epoch: 08 December)

Date Brightness Start Highest point End Pass type
(mag) Time Alt. Az. Time Alt. Az. Time Alt. Az.
09 Dec 8.5 16:30:50 10° S 16:36:29 38° ESE 16:42:01 10° NE visible
09 Dec 8.5 18:16:43 10° WSW 18:22:44 52° NW 18:25:54 27° NNE visible
09 Dec 10.0 20:06:02 10° WNW 20:09:25 20° NW 20:09:25 20° NW visible
10 Dec 8.2 16:39:41 10° SSW 16:45:40 54° ESE 16:51:32 10° NE visible
10 Dec 8.9 18:26:29 10° WSW 18:32:15 41° NW 18:35:12 25° NNE visible
10 Dec 10.2 20:16:14 10° WNW 20:18:44 16° NW 20:18:44 16° NW visible
11 Dec 7.9 16:48:47 10° SSW 16:54:57 74° ESE 17:00:57 10° NE visible
11 Dec 9.2 18:36:24 10° W 18:41:50 32° NW 18:44:28 23° N visible
11 Dec 10.3 20:26:25 10° NW 20:28:00 14° NW 20:28:00 14° NW visible
12 Dec 8.0 16:58:06 10° SW 17:04:17 83° NW 17:10:11 11° NE visible
12 Dec 9.4 18:46:25 10° W 18:51:30 26° NNW 18:53:42 21° N visible
12 Dec 10.5 20:36:28 10° NW 20:37:13 12° NNW 20:37:13 12° NNW visible
13 Dec 8.3 17:07:34 10° SW 17:13:41 63° NW 17:19:24 11° NNE visible
13 Dec 9.6 18:56:33 10° WNW 19:01:13 22° NNW 19:02:54 20° N visible
13 Dec 10.6 20:46:23 10° NW 20:46:25 10° NNW 20:46:25 10° NNW visible
14 Dec 8.6 17:17:15 10° WSW 17:23:09 48° NW 17:28:35 12° NNE visible
14 Dec 9.7 19:06:44 10° WNW 19:11:00 19° NNW 19:12:05 18° N visible
15 Dec 9.0 17:27:04 10° WSW 17:32:42 37° NW 17:37:45 12° NNE visible
15 Dec 9.8 19:16:56 10° NW 19:20:49 17° NNW 19:21:16 17° N visible
16 Dec 9.3 17:37:01 10° W 17:42:19 30° NW 17:46:54 13° NNE visible
16 Dec 9.9 19:27:04 10° NW 19:30:24 16° N 19:30:24 16° N visible
17 Dec 9.5 17:47:06 10° W 17:52:00 25° NNW 17:56:02 13° NNE visible
17 Dec 10.0 19:37:05 10° NW 19:39:33 15° NNW 19:39:33 15° NNW visible
18 Dec 9.6 17:57:14 10° WNW 18:01:44 21° NNW 18:05:10 13° NNE visible
18 Dec 10.1 19:46:57 10° NNW 19:48:40 14° NNW 19:48:40 14° NNW visible
